This demonstration page uses our WeatherBlox Daily Observations layout. Learn more.

Left ArrowRight Arrow

44.8408, -93.29828

Hourly Observations for March 12, 2015

Temp ( °F °C ) Dew Point ( °F °C ) Humidity (%) Winds ( mph kmh ) Pressure ( in mb ) Visibility ( mi km ) Precip ( " mm )
12:53 am 00:53 Mostly Cloudy 41 5 29 -1.7 62 62 SE 9 15 30.29 1026 10 16 0.00 0.00
1:53 am 01:53 Clear 39 3.9 29 -1.7 67 67 SE 8 13 30.29 1026 10 16 0.00 0.00
2:53 am 02:53 Mostly Cloudy 39 3.9 29 -1.7 67 67 SE 9 15 30.28 1025 10 16 0.00 0.00
3:53 am 03:53 Clear 38 3.3 29 -1.7 70 70 ESE 8 13 30.26 1025 10 16 0.00 0.00
4:53 am 04:53 Mostly Cloudy 39 3.9 30 -1.1 70 70 ESE 8 13 30.25 1025 10 16 0.00 0.00
5:53 am 05:53 Mostly Cloudy 39 3.9 31 -0.6 73 73 SE 9 15 30.25 1025 10 16 0.00 0.00
6:53 am 06:53 Cloudy 39 3.9 31 -0.6 73 73 SE 10 17 30.26 1025 10 16 0.00 0.00
7:53 am 07:53 Cloudy 39 3.9 31 -0.6 73 73 SE 9 15 30.25 1025 10 16 0.00 0.00
8:53 am 08:53 Cloudy 41 5 30 -1.1 65 65 SSE 12 19 30.25 1025 10 16 0.00 0.00
9:53 am 09:53 Cloudy 45 7.2 33 0.6 63 63 SSE 14 22 30.26 1025 10 16 0.00 0.00
10:53 am 10:53 Cloudy 48 8.9 35 1.7 61 61 SSE 15 24 30.25 1024 10 16 0.00 0.00
11:53 am 11:53 Cloudy 52 11.1 37 2.8 57 57 SSE 16 26 30.23 1024 10 16 0.00 0.00
12:53 pm 12:53 Cloudy 55 12.8 38 3.3 53 53 SSE 17 28 30.21 1023 10 16 0.00 0.00
1:53 pm 13:53 Cloudy 57 13.9 39 3.9 51 51 SSE 17 28 30.17 1022 10 16 0.00 0.00
2:53 pm 14:53 Cloudy 57 13.9 41 5 55 55 SSE 16 26 30.15 1021 10 16 0.00 0.00
3:53 pm 15:53 Mostly Cloudy 59 15 42 5.6 54 54 SSE 16 26 30.13 1020 10 16 0.00 0.00
4:53 pm 16:53 Mostly Cloudy 60 15.6 44 6.7 56 56 S 17 28 30.11 1020 10 16 0.00 0.00
5:53 pm 17:53 Mostly Cloudy 61 16.1 46 7.8 58 58 S 16 26 30.09 1019 10 16 0.00 0.00
6:53 pm 18:53 Mostly Cloudy 60 15.6 47 8.3 62 62 SSE 14 22 30.09 1019 8 13 0.00 0.00
7:53 pm 19:53 Mostly Cloudy 58 14.4 47 8.3 67 67 SSE 16 26 30.09 1019 8 13 0.00 0.00
8:53 pm 20:53 Mostly Cloudy 57 13.9 46 7.8 67 67 SSE 17 28 30.09 1019 10 16 0.00 0.00
9:53 pm 21:53 Mostly Cloudy 55 12.8 45 7.2 69 69 SSE 15 24 30.07 1018 7 11 0.00 0.00
10:53 pm 22:53 Cloudy 54 12.2 44 6.7 69 69 SSE 12 19 30.06 1018 10 16 0.00 0.00
11:53 pm 23:53 Cloudy 55 12.8 44 6.7 67 67 SSE 13 20 30.05 1018 10 16 0.00 0.00

Powered by AerisWeather